This demonstration page uses our WeatherBlox Daily Observations layout. Learn more.

Left ArrowRight Arrow

31.84235, -102.49876

Hourly Observations for March 26, 2015

Temp ( °F °C ) Dew Point ( °F °C ) Humidity (%) Winds ( mph kmh ) Pressure ( in mb ) Visibility ( mi km ) Precip ( " mm )
12:53 am 00:53 Mostly Cloudy with Haze 51 10.6 35 1.7 54 54 NE 32 52 30.03 1017 6 10 0.00 0.00
1:53 am 01:53 Mostly Cloudy 48 8.9 34 1.1 58 58 NE 26 43 30.07 1018 7 11 0.00 0.00
2:17 am 02:17 Partly Cloudy 48 8.9 34 1.1 58 58 NE 28 44 30.18 1022 9 14 0.00 0.00
2:38 am 02:38 Mostly Cloudy 47 8.3 35 1.7 63 63 NNE 22 35 30.18 1022 8 13 0.00 0.00
2:49 am 02:49 Partly Cloudy 46 8 34 1 62 62 NE 20 31 30.18 1022 9 14 0.00 0.00
2:53 am 02:53 Partly Cloudy 47 8.3 34 1.1 61 61 NNE 21 33 30.09 1019 9 14 0.00 0.00
3:53 am 03:53 Clear 45 7.2 35 1.7 68 68 NNE 14 22 30.11 1020 10 16 0.00 0.00
4:53 am 04:53 Clear 44 6.7 34 1.1 68 68 NNE 17 28 30.12 1020 10 16 0.00 0.00
5:53 am 05:53 Clear 43 6.1 34 1.1 71 71 NNE 17 28 30.15 1021 10 16 0.00 0.00
6:53 am 06:53 Clear 41 5 34 1.1 76 76 N 12 19 30.18 1022 10 16 0.00 0.00
7:53 am 07:53 Sunny 41 5 34 1.1 76 76 N 13 20 30.21 1023 10 16 0.00 0.00
8:53 am 08:53 Sunny 44 6.7 35 1.7 71 71 N 16 26 30.24 1024 10 16 0.00 0.00
9:53 am 09:53 Sunny 46 7.8 33 0.6 61 61 N 17 28 30.26 1025 10 16 0.00 0.00
10:53 am 10:53 Sunny 48 8.9 31 -0.6 52 52 NNE 18 30 30.27 1025 10 16 0.00 0.00
11:53 am 11:53 Sunny 51 10.6 32 0 48 48 N 15 24 30.27 1025 10 16 0.00 0.00
12:53 pm 12:53 Sunny 54 12.2 32 0 43 43 NNE 16 26 30.27 1025 10 16 0.00 0.00
1:53 pm 13:53 Sunny 57 13.9 30 -1.1 36 36 N 14 22 30.24 1024 10 16 0.00 0.00
2:53 pm 14:53 Sunny 58 14.4 27 -2.8 31 31 NW 8 13 30.22 1023 10 16 0.00 0.00
3:53 pm 15:53 Sunny 60 15.6 23 -5 24 24 undefined N/A 30.18 1022 10 16 0.00 0.00
4:53 pm 16:53 Sunny 62 16.7 23 -5 22 22 N 9 15 30.16 1021 10 16 0.00 0.00
5:53 pm 17:53 Sunny 63 17.2 23 -5 22 22 NW 7 11 30.14 1021 10 16 0.00 0.00
6:53 pm 18:53 Sunny 62 16.7 21 -6.1 21 21 NNW 3 6 30.14 1021 10 16 0.00 0.00
7:53 pm 19:53 Sunny 60 15.6 22 -5.6 23 23 Calm 30.15 1021 10 16 0.00 0.00
8:53 pm 20:53 Clear 56 13.3 25 -3.9 30 30 SE 5 7 30.16 1022 10 16 0.00 0.00
9:53 pm 21:53 Clear 56 13.3 26 -3.3 32 32 Calm 30.18 1022 10 16 0.00 0.00
10:53 pm 22:53 Clear 52 11.1 29 -1.7 41 41 WSW 3 6 30.19 1023 10 16 0.00 0.00
11:53 pm 23:53 Clear 50 10 30 -1.1 46 46 SW 6 9 30.19 1022 10 16 0.00 0.00

Powered by AerisWeather